Probability
0 0 0 0 0 0 0 0 0 0 0 3 3 0 0 0 0 0 0 29 26 16 19 13 13 13 16 16 16 13 13 6 10 10 13 10 10 10 13 16 13 13 10
0 0 0 0 0 0 0 0 0 0 0 0 0 0 0 0 0 0 0 6 16 16 13 13 13 13 10 10 13 10 10 6 6 6 6 6 10 10 10 10 13 16 16
0 0 0 0 0 0 0 0 0 0 0 0 0 0 0 0 0 0 0 0 0 6 16 13 10 13 13 13 13 10 6 6 6 6 6 6 10 10 6 10 10 10 13
0 0 0 0 0 0 0 0 0 0 0 0 0 0 0 0 0 0 0 0 0 0 3 13 13 13 13 10 10 10 6 6 6 6 6 6 10 13 10 10 3 3 13
0 0 0 0 0 0 0 0 0 0 0 0 0 0 0 0 0 0 0 0 0 0 3 3 10 13 13 6 6 6 6 6 6 6 6 10 10 6 6 6 6 6 6
0 0 0 0 0 0 0 0 0 0 0 0 0 0 0 0 0 0 0 0 0 0 0 3 3 3 6 6 3 3 6 6 10 6 6 6 10 6 6 13 10 10 10
0 0 0 0 0 0 0 0 0 0 0 0 0 0 0 0 0 0 0 0 0 0 0 3 3 3 3 6 3 3 6 6 6 6 6 6 6 6 6 10 13 10 10
0 0 0 0 0 0 0 0 0 0 0 0 0 0 0 0 0 0 0 0 0 0 3 3 3 0 0 0 3 3 6 6 6 6 6 6 6 6 10 10 13 13 16
0 0 0 0 0 0 0 0 0 0 0 0 0 0 0 0 0 0 0 0 0 0 0 3 3 0 0 0 3 3 3 3 6 6 6 6 6 6 10 10 6 13 10
0 0 0 0 0 0 0 0 0 0 0 0 0 0 0 0 0 0 0 0 0 0 0 3 3 3 0 0 3 3 3 3 6 6 6 6 6 6 6 6 6 6 10
0 0 0 0 0 0 0 0 0 0 0 0 0 0 0 0 0 0 0 0 0 0 0 0 0 3 0 0 0 3 3 3 3 6 6 6 6 6 6 10 3 6 6
0 0 0 0 0 0 0 0 0 0 0 0 0 0 0 0 0 0 0 0 0 0 0 0 0 0 0 0 0 0 3 3 3 6 6 6 6 6 6 10 3 3 6
3 0 0 0 0 0 0 0 0 0 0 0 0 0 0 0 0 0 0 0 0 0 0 0 0 0 0 0 0 0 0 3 3 3 6 6 6 6 10 10 6 6 6
3 3 0 0 0 0 0 0 0 0 0 0 0 0 0 0 0 0 0 0 0 0 0 0 0 0 0 0 0 0 0 0 3 3 3 3 3 3 3 3 3 3 6
3 3 3 0 0 0 0 0 0 0 0 0 0 0 0 0 0 0 0 0 0 0 0 0 0 0 0 0 0 0 0 0 0 3 3 3 0 3 3 3 3 3 3
0 0 0 0 0 0 0 0 0 0 0 0 0 0 0 0 0 0 0 0 0 0 0 0 0 0 0 0 0 0 0 0 0 0 0 0 0 3 3 3 3 3 3
0 0 0 0 0 0 0 0 0 0 0 0 0 0 0 0 0 0 0 0 0 0 0 0 0 0 0 0 0 0 0 0 0 0 0 0 0 0 0 0 0 0 0
0 0 0 0 0 0 0 0 0 0 0 0 0 0 0 0 0 0 0 0 0 0 0 0 0 0 0 0 0 0 0 0 0 0 0 0 0 0 0 0 0 0 0
0 0 0 0 0 0 0 0 0 0 0 0 0 0 0 0 0 0 0 0 0 0 0 0 0 0 0 0 0 0 0 0 0 0 0 0 0 0 0 0 0 0 0
0 0 0 0 0 0 0 0 0 0 0 0 0 0 0 0 0 0 0 0 0 0 0 0 0 0 0 0 0 0 0 0 0 0 0 0 0 0 0 0 0 0 0
0 0 0 0 0 0 0 0 0 0 0 0 0 0 0 0 0 0 0 0 0 0 0 0 0 0 0 0 0 0 0 0 0 0 0 0 0 0 0 0 0 0 0
0 0 0 0 0 0 0 0 0 0 0 0 0 0 0 0 0 0 0 0 0 0 0 0 0 0 0 0 0 0 0 0 0 0 0 0 0 0 0 0 0 0 0
0 0 0 0 0 0 0 0 0 0 0 0 0 0 0 0 0 0 0 0 0 0 0 0 0 0 0 0 0 0 0 0 0 0 0 0 0 0 0 0 0 0 0
0 0 0 0 0 0 0 0 0 0 0 0 0 0 0 0 0 0 0 0 0 0 0 0 0 0 0 0 0 0 0 0 0 0 0 0 0 0 0 0 0 0 0
0 0 0 0 0 0 0 0 0 0 0 0 0 0 0 0 0 0 0 0 0 0 0 0 0 0 0 0 0 0 0 0 0 0 0 0 0 0 0 0 0 0 0
0 0 0 0 0 0 0 0 0 0 0 0 0 0 0 0 0 0 0 0 0 0 0 0 0 0 0 0 0 0 0 0 0 0 0 0 0 0 0 0 0 0 0
Height
5857 5856 5855 5854 5853 5852 5852 5851 5851 5850 5849 5849 5848 5848 5847 5846 5846 5845 5845 5844 5844 5844 5843 5843 5843 5843 5843 5843 5843 5843 5843 5843 5843 5843 5843 5843 5843 5843 5843 5843 5843 5843 5843
5854 5853 5852 5851 5850 5849 5849 5848 5847 5846 5846 5845 5844 5844 5844 5843 5842 5842 5842 5841 5841 5840 5840 5840 5840 5840 5840 5840 5840 5840 5839 5839 5839 5839 5839 5840 5840 5840 5840 5840 5841 5841 5841
5851 5850 5849 5848 5847 5846 5845 5844 5843 5843 5842 5841 5841 5840 5840 5839 5839 5838 5838 5838 5837 5837 5836 5836 5836 5836 5836 5836 5836 5836 5836 5836 5836 5836 5836 5836 5836 5837 5837 5837 5837 5838 5838
5848 5847 5846 5845 5844 5842 5841 5841 5839 5839 5838 5838 5837 5836 5836 5836 5835 5835 5834 5834 5833 5833 5833 5832 5832 5832 5832 5832 5832 5832 5832 5832 5832 5832 5832 5832 5833 5833 5833 5834 5834 5834 5834
5845 5844 5843 5841 5840 5839 5838 5837 5836 5835 5834 5833 5833 5832 5832 5832 5831 5831 5830 5830 5829 5829 5829 5828 5828 5828 5828 5828 5828 5828 5828 5828 5828 5828 5828 5828 5829 5829 5829 5830 5830 5831 5831
5841 5840 5839 5838 5837 5835 5834 5832 5831 5830 5829 5829 5829 5828 5828 5827 5827 5827 5826 5825 5825 5825 5824 5824 5824 5824 5824 5824 5824 5824 5824 5824 5824 5824 5824 5824 5825 5825 5825 5826 5826 5826 5827
5838 5836 5835 5834 5832 5831 5829 5828 5826 5825 5824 5824 5824 5823 5823 5823 5822 5822 5821 5821 5821 5820 5820 5820 5820 5820 5820 5820 5820 5820 5820 5820 5820 5820 5820 5821 5821 5821 5821 5821 5822 5822 5823
5833 5832 5830 5829 5827 5826 5824 5822 5821 5820 5819 5819 5819 5818 5818 5818 5817 5817 5817 5816 5816 5816 5816 5816 5816 5816 5816 5816 5816 5816 5816 5816 5816 5816 5816 5816 5817 5817 5817 5817 5817 5818 5818
5829 5827 5825 5824 5822 5820 5818 5816 5815 5814 5814 5813 5813 5813 5813 5813 5812 5812 5812 5812 5812 5812 5811 5811 5811 5811 5811 5811 5811 5811 5811 5811 5811 5812 5812 5812 5812 5812 5812 5813 5813 5813 5814
5824 5822 5820 5818 5816 5814 5812 5810 5809 5808 5808 5807 5807 5807 5807 5807 5807 5806 5806 5806 5806 5807 5807 5807 5807 5807 5807 5807 5807 5807 5807 5807 5807 5807 5807 5807 5807 5808 5808 5808 5808 5808 5808
5819 5817 5815 5813 5810 5808 5806 5804 5803 5802 5801 5801 5800 5800 5800 5800 5801 5801 5801 5801 5801 5801 5802 5802 5802 5802 5802 5802 5802 5802 5802 5802 5802 5802 5802 5802 5803 5803 5803 5803 5803 5803 5803
5814 5811 5809 5807 5804 5802 5800 5799 5797 5796 5795 5794 5794 5794 5794 5794 5794 5794 5795 5795 5795 5796 5796 5796 5797 5797 5797 5797 5797 5797 5797 5797 5797 5797 5797 5797 5797 5797 5797 5797 5797 5797 5797
5808 5806 5803 5801 5799 5796 5794 5793 5791 5789 5788 5788 5787 5787 5787 5787 5788 5788 5789 5789 5790 5790 5790 5791 5791 5791 5791 5792 5792 5792 5791 5791 5791 5791 5791 5792 5792 5792 5792 5791 5791 5791 5791
5803 5800 5797 5795 5792 5790 5788 5786 5784 5783 5782 5781 5781 5780 5780 5781 5781 5782 5782 5783 5784 5784 5784 5785 5785 5785 5785 5786 5786 5786 5785 5785 5785 5785 5786 5786 5786 5786 5786 5785 5785 5785 5785
5796 5794 5791 5789 5786 5784 5782 5780 5778 5776 5775 5775 5774 5774 5774 5774 5774 5775 5776 5776 5778 5778 5778 5778 5778 5779 5779 5779 5779 5779 5779 5779 5779 5779 5779 5779 5779 5779 5779 5779 5779 5779 5779
5789 5787 5784 5782 5780 5778 5775 5773 5771 5770 5769 5768 5767 5767 5767 5767 5767 5768 5768 5769 5770 5771 5771 5772 5772 5772 5772 5772 5772 5772 5772 5772 5772 5772 5772 5772 5772 5772 5772 5772 5772 5772 5772
5782 5780 5777 5775 5773 5771 5769 5767 5765 5763 5762 5761 5760 5760 5760 5760 5760 5760 5761 5762 5763 5763 5764 5764 5765 5765 5765 5765 5765 5765 5765 5765 5765 5765 5765 5765 5764 5764 5764 5764 5764 5765 5765
5775 5773 5770 5768 5766 5764 5762 5760 5758 5756 5755 5754 5753 5753 5752 5752 5752 5753 5753 5754 5755 5755 5756 5756 5757 5757 5757 5757 5757 5758 5758 5757 5758 5757 5757 5757 5757 5756 5756 5756 5757 5757 5757
5768 5765 5763 5761 5759 5756 5754 5752 5750 5749 5747 5746 5745 5745 5745 5744 5744 5745 5745 5746 5747 5748 5748 5749 5749 5749 5749 5749 5749 5750 5750 5750 5749 5749 5749 5749 5748 5748 5748 5748 5749 5749 5750
5759 5757 5754 5752 5750 5748 5746 5744 5742 5741 5740 5738 5737 5737 5736 5736 5736 5736 5737 5737 5738 5739 5740 5740 5740 5741 5741 5741 5741 5741 5741 5741 5741 5741 5741 5741 5740 5740 5740 5741 5741 5742 5743
5751 5749 5746 5744 5742 5740 5738 5736 5734 5732 5731 5730 5729 5728 5728 5727 5726 5727 5728 5728 5729 5730 5731 5731 5732 5732 5732 5732 5732 5733 5733 5733 5733 5733 5733 5733 5733 5732 5732 5733 5733 5734 5735
5743 5740 5738 5735 5733 5731 5729 5727 5725 5724 5723 5722 5721 5720 5719 5718 5718 5718 5718 5719 5720 5721 5722 5722 5723 5723 5723 5723 5723 5723 5723 5724 5724 5725 5725 5724 5724 5724 5724 5725 5725 5726 5727
5734 5731 5729 5727 5724 5722 5720 5718 5716 5715 5714 5712 5712 5711 5710 5709 5708 5709 5709 5710 5710 5711 5712 5713 5713 5713 5713 5713 5713 5713 5713 5714 5715 5715 5715 5716 5715 5715 5716 5716 5717 5718 5719
5725 5723 5721 5718 5716 5713 5711 5709 5707 5705 5704 5703 5702 5701 5700 5699 5699 5698 5699 5699 5700 5701 5702 5702 5703 5703 5703 5703 5703 5703 5703 5704 5705 5705 5706 5706 5706 5707 5707 5707 5708 5709 5710
5716 5714 5711 5709 5707 5704 5702 5700 5697 5695 5694 5692 5691 5690 5689 5689 5688 5688 5688 5689 5690 5690 5690 5691 5691 5691 5691 5692 5692 5693 5693 5694 5695 5695 5696 5696 5697 5697 5697 5698 5699 5700 5701
5707 5704 5702 5700 5697 5695 5692 5690 5687 5685 5684 5682 5681 5679 5678 5678 5677 5677 5677 5678 5679 5679 5679 5679 5680 5680 5680 5681 5681 5682 5683 5684 5684 5685 5686 5686 5687 5687 5688 5689 5689 5690 5692
Wind_Speed
11 11 11 12 12 13 13 13 13 12 12 12 13 13 13 13 14 14 14 14 13 13 13 13 13 14 14 14 14 13 13 12 12 11 12 12 12 12 12 12 11 11 11
11 12 12 12 13 14 14 14 14 14 14 13 14 14 13 13 14 14 14 14 14 14 14 14 14 14 14 14 14 14 13 13 13 13 13 13 13 13 13 13 13 12 11
12 12 12 13 13 13 14 15 15 15 15 15 15 15 14 14 14 14 15 15 15 14 14 14 15 15 15 15 15 14 14 14 14 13 14 14 14 14 14 13 13 14 13
13 12 13 13 14 14 14 15 15 16 15 15 15 15 15 15 15 15 15 15 15 15 15 15 15 15 16 15 15 15 15 15 14 14 14 14 15 15 15 15 14 14 14
13 13 14 14 14 15 16 16 16 16 16 16 16 16 16 16 15 15 15 15 15 15 16 16 16 16 16 16 16 16 15 16 15 15 15 15 16 16 16 15 15 15 14
14 14 15 16 16 16 17 17 17 17 17 17 17 17 17 17 16 16 16 16 16 16 16 16 17 17 16 16 16 16 16 16 15 15 15 14 15 16 16 16 16 15 15
15 16 16 17 17 17 18 18 18 18 18 18 17 17 17 17 17 17 16 16 16 16 16 16 16 16 16 17 16 16 16 16 16 15 15 14 15 15 16 16 16 16 16
17 17 18 18 18 19 19 19 19 19 18 18 18 18 18 18 18 17 17 17 17 16 16 16 15 15 16 16 16 16 16 16 16 16 16 16 16 16 16 16 16 17 17
19 19 19 19 19 20 20 20 20 20 20 19 18 18 19 19 19 19 19 19 18 16 16 16 16 16 15 16 15 16 16 16 16 15 15 16 16 16 16 16 17 17 17
20 20 20 20 20 21 21 21 21 21 21 21 20 19 19 20 19 19 20 19 19 18 17 16 16 17 16 16 16 16 16 16 16 16 16 16 16 17 17 16 16 17 18
20 20 21 21 22 22 22 21 21 21 21 21 21 20 20 20 20 19 19 19 19 18 18 17 17 18 18 18 17 17 17 17 17 17 18 17 17 17 17 17 17 17 18
20 21 22 22 22 22 22 22 22 22 22 22 22 22 21 20 20 20 18 18 19 19 19 19 19 18 19 18 18 18 18 18 18 18 18 18 17 17 17 18 18 18 18
21 22 23 22 22 22 22 22 22 22 22 22 22 22 22 22 21 20 19 19 20 20 20 20 20 19 19 19 19 19 19 19 19 19 19 19 19 19 18 18 19 19 19
23 23 23 23 22 22 22 22 23 23 22 21 21 22 22 23 22 22 21 21 21 21 21 21 21 21 20 20 20 19 20 20 20 20 20 20 20 20 20 19 19 19 19
24 24 24 23 23 23 23 23 23 23 22 22 23 23 24 24 24 23 23 22 22 22 22 22 22 21 21 21 20 20 20 21 21 21 21 21 21 21 21 21 21 20 20
26 26 25 25 24 24 23 23 23 23 23 24 24 24 24 25 26 25 24 24 24 23 23 23 22 22 22 22 22 22 22 22 22 22 22 23 23 23 23 23 23 22 22
27 26 26 25 25 25 25 24 25 25 24 24 25 26 26 26 26 27 26 25 25 24 24 23 23 23 23 24 24 24 23 23 23 23 24 24 24 24 24 24 24 23 23
27 27 27 26 27 27 27 26 26 26 26 26 26 26 26 26 26 26 27 27 26 26 25 25 24 24 24 25 25 25 25 25 25 24 25 25 26 25 25 25 25 24 24
28 28 28 28 29 28 28 27 28 27 27 27 27 28 28 28 27 27 27 28 27 27 27 27 27 26 25 25 26 26 26 25 25 25 25 25 25 25 26 26 25 25 25
29 29 29 29 30 29 29 29 28 28 27 27 27 27 28 28 28 28 28 29 29 28 27 28 28 28 27 27 27 27 27 27 26 26 26 26 26 26 26 26 26 26 26
29 30 30 30 30 30 30 29 28 27 27 27 27 28 28 28 29 29 29 29 29 29 29 28 28 29 29 29 29 29 29 28 28 27 27 27 26 27 27 27 27 27 27
30 30 30 30 30 30 30 29 29 28 28 28 29 29 29 29 29 30 31 30 31 30 30 29 29 30 30 30 30 30 29 28 28 28 28 28 28 27 27 27 27 28 28
31 31 31 31 30 30 30 30 30 30 30 30 30 30 30 30 30 31 32 32 32 32 32 31 31 31 31 31 31 30 29 29 28 28 28 28 29 28 28 27 27 28 28
31 31 31 31 30 30 30 31 31 32 32 32 32 31 32 32 32 32 32 33 33 33 33 33 33 33 32 32 32 31 30 30 30 30 30 29 29 29 28 28 28 28 28
32 32 31 31 31 32 32 33 33 33 33 33 33 33 33 33 33 33 33 33 33 33 34 34 34 34 33 33 32 31 31 31 30 31 30 30 30 29 29 30 30 30 30
33 33 33 33 33 34 34 34 34 34 35 34 34 34 35 35 35 35 34 34 34 34 34 35 34 33 34 33 32 31 31 31 31 31 31 31 30 30 30 30 30 31 31
Wind_Direction
293 291 289 288 288 288 288 288 288 285 284 281 280 280 281 281 281 281 279 276 274 272 270 268 267 267 267 271 272 275 274 274 274 274 273 269 266 264 261 263 265 267 266
295 293 289 289 288 289 290 289 288 286 283 282 280 279 278 280 281 281 280 278 274 272 269 268 267 268 266 268 271 271 272 272 270 272 270 266 265 262 261 263 263 266 265
296 295 293 292 290 289 290 289 287 284 281 280 279 279 278 279 280 279 279 278 277 273 271 269 268 270 269 269 270 271 270 271 269 267 267 266 264 262 262 261 262 263 264
294 294 296 296 292 289 290 290 289 286 282 280 279 279 279 279 279 278 277 276 275 273 272 272 271 269 269 270 273 274 274 271 267 268 269 268 266 263 260 259 261 263 264
295 294 296 298 296 293 292 291 290 288 284 280 280 280 279 278 278 278 277 276 274 273 273 273 271 268 268 271 273 275 274 273 270 269 269 271 269 262 260 261 263 263 263
296 295 297 296 294 293 293 292 291 289 285 281 280 279 279 278 276 276 277 276 274 273 274 273 271 267 266 269 273 274 273 273 272 271 271 270 271 269 265 264 265 264 263
296 296 297 296 295 294 294 292 288 287 285 281 279 278 278 278 277 276 276 276 274 272 272 272 272 269 268 268 269 270 271 271 271 269 267 266 267 269 268 267 265 264 264
295 295 296 296 295 295 293 290 287 284 284 281 277 276 277 278 276 274 275 275 273 270 269 268 268 268 268 268 268 269 270 270 269 268 266 265 267 269 269 265 264 263 264
295 294 294 295 296 296 293 289 286 283 281 280 276 274 273 275 275 273 272 272 271 267 266 264 264 265 267 269 270 269 269 269 269 269 268 268 267 267 267 265 264 264 265
294 294 294 295 296 296 293 290 287 286 283 281 277 274 273 272 272 271 270 269 269 265 263 265 264 265 266 269 270 270 269 268 269 268 269 270 269 267 266 267 268 267 265
295 295 295 295 295 294 292 290 288 286 282 280 276 273 272 271 269 269 267 267 266 263 263 264 266 266 265 267 268 269 269 268 267 268 269 267 269 268 268 269 270 268 266
295 296 296 296 294 293 292 292 289 286 284 281 277 271 271 269 267 267 265 264 264 262 261 262 264 266 266 267 267 268 269 269 267 267 269 268 268 270 270 270 269 267 265
294 296 296 295 293 293 293 292 290 287 285 281 278 272 269 269 268 266 265 263 262 261 261 261 262 264 266 267 267 267 270 270 269 268 269 268 268 269 269 270 269 266 264
293 294 295 294 293 293 293 291 289 286 283 279 277 273 268 266 267 266 265 265 263 262 261 261 262 263 265 267 266 267 269 269 269 268 268 269 268 267 268 268 266 266 265
294 295 294 292 292 293 293 291 288 284 281 279 277 275 272 267 266 266 267 266 265 264 263 261 262 262 264 266 266 267 268 268 268 267 267 268 269 269 268 266 265 266 266
293 293 292 291 290 290 291 291 287 282 280 278 277 274 272 269 266 264 266 266 264 264 264 263 265 265 265 267 266 267 267 267 267 267 266 267 269 269 266 266 265 265 264
293 292 290 289 289 289 289 289 285 283 280 279 277 273 271 269 268 265 265 265 264 265 265 265 267 266 264 265 266 267 268 267 266 266 266 266 267 268 266 264 264 265 264
292 290 288 288 289 289 288 287 284 281 280 280 277 275 272 270 268 267 266 266 265 266 266 266 265 267 267 267 268 269 270 270 269 267 265 266 265 265 264 261 261 262 262
291 289 287 287 288 289 288 286 284 282 282 280 278 277 275 269 267 267 266 266 265 265 266 266 266 265 268 269 269 269 270 271 271 268 267 266 264 263 260 259 259 259 258
290 289 286 287 288 288 288 287 285 283 281 279 278 278 279 275 269 266 265 264 264 264 265 267 268 268 268 270 269 268 268 268 268 268 269 268 267 265 262 260 259 258 258
289 288 286 287 287 288 288 287 285 282 281 280 279 278 278 277 271 268 266 264 264 264 266 268 268 270 269 270 269 268 268 266 266 267 269 269 269 267 264 261 260 259 259
288 287 286 286 286 287 287 285 283 283 282 281 279 278 278 276 272 269 266 266 265 266 267 267 268 270 270 271 269 268 268 267 266 266 266 267 268 267 264 260 259 258 259
289 289 287 286 286 286 286 284 283 282 282 281 279 277 276 276 273 270 267 266 265 265 266 267 268 269 269 269 269 267 267 266 265 265 266 267 268 267 264 260 257 257 257
288 287 287 287 285 285 284 284 283 283 282 280 278 277 277 276 275 272 269 267 267 266 266 268 268 268 267 267 267 266 265 264 264 265 266 267 268 266 262 259 256 256 255
286 285 285 286 285 284 283 283 283 283 283 281 279 278 277 276 275 273 271 269 268 268 268 268 269 267 265 265 265 265 265 265 264 264 265 265 265 264 262 261 258 255 254
284 283 284 285 285 285 285 284 283 284 283 281 280 279 277 276 274 272 271 270 268 267 267 268 269 267 264 263 263 262 263 264 265 264 264 263 263 262 260 260 259 256 255